#Datum;Uhrzeit;WR;Pac;DaySum;Status;WR;Pac;DaySum;Status;Pdc1;Udc;Temp;WR;Pac;DaySum;Status;Pdc1;Udc;Temp;WR;Pac;DaySum;Status;Pdc1;Udc;Temp;WR;Pac;DaySum;Status;Pdc1;Pdc2;Udc1;Udc2;Temp;WR;Pac;DaySum;Status;Pdc1;Pdc2;Udc1;Udc2;Temp;WR;Pac;DaySum;Status;Pdc1;Udc;Temp;WR;Pac;DaySum;Status;Pdc1;Udc;Temp;WR;Pac;DaySum;Status;Pdc1;Udc;Temp
13.06.20;23:55:00;1;266;8693;0;2;0;39489;0;0;0;0;3;0;26098;0;0;0;0;4;0;36020;0;0;0;0;5;0;82141;0;0;0;0;0;0;6;0;62068;0;0;0;0;0;0;7;0;45504;0;0;0;0;8;0;45586;0;0;0;0;9;0;25255;0;0;0;0
13.06.20;23:50:00;1;221;8670;0;2;0;39489;0;0;0;0;3;0;26098;0;0;0;0;4;0;36020;0;0;0;0;5;0;82141;0;0;0;0;0;0;6;0;62068;0;0;0;0;0;0;7;0;45504;0;0;0;0;8;0;45586;0;0;0;0;9;0;25255;0;0;0;0
13.06.20;23:45:00;1;293;8651;0;2;0;39489;0;0;0;0;3;0;26098;0;0;0;0;4;0;36020;0;0;0;0;5;0;82141;0;0;0;0;0;0;6;0;62068;0;0;0;0;0;0;7;0;45504;0;0;0;0;8;0;45586;0;0;0;0;9;0;25255;0;0;0;0
13.06.20;23:40:00;1;315;8626;0;2;0;39489;0;0;0;0;3;0;26098;0;0;0;0;4;0;36020;0;0;0;0;5;0;82141;0;0;0;0;0;0;6;0;62068;0;0;0;0;0;0;7;0;45504;0;0;0;0;8;0;45586;0;0;0;0;9;0;25255;0;0;0;0
13.06.20;23:35:00;1;264;8600;0;2;0;39489;0;0;0;0;3;0;26098;0;0;0;0;4;0;36020;0;0;0;0;5;0;82141;0;0;0;0;0;0;6;0;62068;0;0;0;0;0;0;7;0;45504;0;0;0;0;8;0;45586;0;0;0;0;9;0;25255;0;0;0;0
13.06.20;23:30:00;1;359;8578;0;2;0;39489;0;0;0;0;3;0;26098;0;0;0;0;4;0;36020;0;0;0;0;5;0;82141;0;0;0;0;0;0;6;0;62068;0;0;0;0;0;0;7;0;45504;0;0;0;0;8;0;45586;0;0;0;0;9;0;25255;0;0;0;0
13.06.20;23:25:00;1;371;8546;0;2;0;39489;0;0;0;0;3;0;26098;0;0;0;0;4;0;36020;0;0;0;0;5;0;82141;0;0;0;0;0;0;6;0;62068;0;0;0;0;0;0;7;0;45504;0;0;0;0;8;0;45586;0;0;0;0;9;0;25255;0;0;0;0
13.06.20;23:20:00;1;352;8516;0;2;0;39489;0;0;0;0;3;0;26098;0;0;0;0;4;0;36020;0;0;0;0;5;0;82141;0;0;0;0;0;0;6;0;62068;0;0;0;0;0;0;7;0;45504;0;0;0;0;8;0;45586;0;0;0;0;9;0;25255;0;0;0;0
13.06.20;23:15:00;1;314;8486;0;2;0;39489;0;0;0;0;3;0;26098;0;0;0;0;4;0;36020;0;0;0;0;5;0;82141;0;0;0;0;0;0;6;0;62068;0;0;0;0;0;0;7;0;45504;0;0;0;0;8;0;45586;0;0;0;0;9;0;25255;0;0;0;0
13.06.20;23:10:00;1;288;8460;0;2;0;39489;0;0;0;0;3;0;26098;0;0;0;0;4;0;36020;0;0;0;0;5;0;82141;0;0;0;0;0;0;6;0;62068;0;0;0;0;0;0;7;0;45504;0;0;0;0;8;0;45586;0;0;0;0;9;0;25255;0;0;0;0
13.06.20;23:05:00;1;258;8438;0;2;0;39489;0;0;0;0;3;0;26098;0;0;0;0;4;0;36020;0;0;0;0;5;0;82141;0;0;0;0;0;0;6;0;62068;0;0;0;0;0;0;7;0;45504;0;0;0;0;8;0;45586;0;0;0;0;9;0;25255;0;0;0;0
13.06.20;23:00:00;1;272;8415;0;2;0;39489;0;0;0;0;3;0;26098;0;0;0;0;4;0;36020;0;0;0;0;5;0;82141;0;0;0;0;0;0;6;0;62068;0;0;0;0;0;0;7;0;45504;0;0;0;0;8;0;45586;0;0;0;0;9;0;25255;0;0;0;0
13.06.20;22:55:00;1;263;8392;0;2;0;39489;0;0;0;0;3;0;26098;0;0;0;0;4;0;36020;0;0;0;0;5;0;82141;2;0;0;0;0;0;6;0;62068;2;0;0;0;0;0;7;0;45504;0;0;0;0;8;0;45586;0;0;0;0;9;0;25255;0;0;0;0
13.06.20;22:50:00;1;255;8370;0;2;0;39489;0;0;0;0;3;0;26098;0;0;0;0;4;0;36020;0;0;0;0;5;0;82141;2;0;0;0;0;0;6;0;62068;2;0;0;0;0;0;7;0;45504;0;0;0;0;8;0;45586;0;0;0;0;9;0;25255;0;0;0;0
13.06.20;22:45:00;1;255;8348;0;2;0;39489;0;0;0;0;3;0;26098;0;0;0;0;4;0;36020;0;0;0;0;5;0;82141;2;0;0;0;0;0;6;0;62068;2;0;0;0;0;0;7;0;45504;0;0;0;0;8;0;45586;0;0;0;0;9;0;25255;0;0;0;0
13.06.20;22:40:00;1;266;8327;0;2;0;39489;0;0;0;0;3;0;26098;0;0;0;0;4;0;36020;0;0;0;0;5;0;82141;2;0;0;0;0;0;6;0;62068;2;0;0;0;0;0;7;0;45504;0;0;0;0;8;0;45586;0;0;0;0;9;0;25255;0;0;0;0
13.06.20;22:35:00;1;372;8304;0;2;0;39489;0;0;0;0;3;0;26098;0;0;0;0;4;0;36020;0;0;0;0;5;0;82141;2;0;0;0;0;0;6;0;62068;2;0;0;0;0;0;7;0;45504;0;0;0;0;8;0;45586;0;0;0;0;9;0;25255;0;0;0;0
13.06.20;22:30:00;1;263;8279;0;2;0;39489;0;0;0;0;3;0;26098;0;0;0;0;4;0;36020;0;0;0;0;5;0;82141;2;0;0;0;0;0;6;0;62068;2;0;0;0;0;0;7;0;45504;0;0;0;0;8;0;45586;0;0;0;0;9;0;25255;0;0;0;0
13.06.20;22:25:00;1;213;8258;0;2;0;39489;0;0;0;0;3;0;26098;0;0;0;0;4;0;36020;0;0;0;0;5;0;82141;2;0;0;0;0;0;6;0;62068;2;0;0;0;0;0;7;0;45504;0;0;0;0;8;0;45586;0;0;0;0;9;0;25255;0;0;0;0
13.06.20;22:20:00;1;257;8240;0;2;0;39489;0;0;0;0;3;0;26098;0;0;0;0;4;0;36020;0;0;0;0;5;0;82141;2;0;0;0;0;0;6;0;62068;2;0;0;0;0;0;7;0;45504;0;0;0;0;8;0;45586;0;0;0;0;9;0;25255;0;0;0;0
13.06.20;22:15:00;1;290;8218;0;2;0;39489;0;0;0;0;3;0;26098;0;0;0;0;4;0;36020;0;0;0;0;5;0;82141;2;0;0;0;0;0;6;0;62068;2;0;0;0;0;0;7;0;45504;0;0;0;0;8;0;45586;0;0;0;0;9;0;25255;0;0;0;0
13.06.20;22:10:00;1;408;8184;0;2;0;39489;0;0;0;0;3;0;26098;0;0;0;0;4;0;36020;0;0;0;0;5;0;82141;2;0;0;0;0;0;6;0;62068;2;0;0;0;0;0;7;0;45504;0;0;0;0;8;0;45586;0;0;0;0;9;0;25255;0;0;0;0
13.06.20;22:05:00;1;261;8153;0;2;0;39489;0;0;0;0;3;0;26098;0;0;0;0;4;0;36020;0;0;0;0;5;0;82141;2;0;0;0;0;0;6;0;62068;2;0;0;0;0;0;7;0;45504;0;0;0;0;8;0;45586;0;0;0;0;9;0;25255;0;0;0;0
13.06.20;22:00:00;1;306;8130;0;2;0;39489;0;0;0;0;3;0;26098;0;0;0;0;4;0;36020;0;0;0;0;5;0;82141;2;0;0;0;0;0;6;0;62068;2;0;0;0;0;0;7;0;45504;0;0;0;0;8;0;45586;0;0;0;0;9;0;25255;0;0;0;0
13.06.20;21:55:00;1;278;8104;0;2;0;39489;0;0;0;0;3;0;26098;0;0;0;0;4;0;36020;0;0;0;0;5;0;82141;2;0;0;0;0;0;6;0;62068;2;0;0;0;0;0;7;0;45504;0;0;0;0;8;0;45586;0;0;0;0;9;0;25255;0;0;0;0
13.06.20;21:50:00;1;257;8081;0;2;0;39489;0;0;0;0;3;0;26098;0;0;0;0;4;0;36020;0;0;0;0;5;0;82141;2;0;0;0;0;0;6;0;62068;2;0;0;0;0;0;7;0;45504;0;0;0;0;8;0;45586;0;0;0;0;9;0;25255;0;0;0;0
13.06.20;21:45:00;1;306;8059;0;2;0;39489;0;0;0;0;3;0;26098;0;0;0;0;4;0;36020;0;0;0;0;5;0;82141;2;0;0;0;0;0;6;0;62068;2;0;0;0;0;0;7;0;45504;0;0;0;0;8;0;45586;0;0;0;0;9;0;25255;0;0;0;0
13.06.20;21:40:00;1;214;8034;0;2;0;39489;0;0;0;0;3;0;26098;0;0;0;0;4;0;36020;0;0;0;0;5;0;82141;2;0;0;0;0;0;6;0;62068;2;0;0;0;0;0;7;0;45504;0;0;0;0;8;0;45586;0;0;0;0;9;0;25255;0;0;0;0
13.06.20;21:35:00;1;215;8016;0;2;0;39489;0;0;0;0;3;0;26098;0;0;176;21;4;0;36020;0;0;0;0;5;0;82141;2;0;0;0;0;0;6;0;62068;2;0;0;0;0;0;7;0;45504;0;0;0;0;8;0;45586;0;0;0;0;9;0;25255;0;0;0;0
13.06.20;21:30:00;1;211;7998;0;2;0;39489;2;0;267;30;3;0;26098;6;0;312;32;4;0;36020;2;0;75;36;5;0;82141;2;0;0;0;0;0;6;0;62068;2;0;0;0;0;0;7;0;45504;0;0;0;0;8;0;45586;0;0;0;0;9;0;25255;0;0;0;0
13.06.20;21:25:00;1;229;7980;0;2;0;39489;6;0;300;31;3;0;26098;6;0;362;33;4;0;36020;1;0;108;36;5;0;82141;2;0;6;98;97;16;6;0;62068;0;0;0;0;0;0;7;0;45504;0;0;0;0;8;0;45586;0;0;0;0;9;0;25255;0;0;49;5
13.06.20;21:20:00;1;315;7961;0;2;0;39489;6;0;324;31;3;0;26098;6;0;407;33;4;0;36020;1;0;145;37;5;0;82141;1;0;0;306;322;43;6;0;62068;23;6;4;317;262;42;7;0;45504;6;0;277;33;8;0;45586;6;0;280;33;9;0;25255;6;0;297;29
13.06.20;21:15:00;1;233;7934;0;2;0;39489;6;0;342;32;3;0;26098;6;3;416;34;4;0;36020;1;0;174;37;5;0;82141;26;0;0;363;368;43;6;0;62068;23;4;5;368;303;42;7;0;45504;6;0;332;33;8;0;45586;6;0;335;33;9;0;25255;6;0;352;30
13.06.20;21:10:00;1;272;7915;0;2;0;39489;6;0;357;32;3;1;26098;6;2;437;34;4;0;36020;1;0;198;37;5;0;82141;26;0;0;385;597;43;6;0;62068;23;5;5;181;510;42;7;0;45504;6;0;380;33;8;0;45586;6;0;384;33;9;0;25255;6;1;333;25
13.06.20;21:05:00;1;314;7892;0;2;0;39489;6;0;369;33;3;0;26098;6;0;472;34;4;0;36020;3;0;205;38;5;10;82140;4;0;0;383;606;44;6;0;62068;23;3;5;327;527;43;7;0;45504;6;4;392;34;8;0;45586;6;2;404;33;9;1;25255;6;2;433;30
13.06.20;21:00:00;1;314;7866;0;2;13;39489;6;27;372;34;3;6;26098;3;17;447;35;4;0;36020;3;0;215;38;5;80;82140;4;2;16;360;574;45;6;47;62068;1;19;29;450;452;44;7;0;45504;6;0;441;34;8;1;45586;6;5;428;34;9;0;25255;6;3;459;31
13.06.20;20:55:00;1;379;7839;0;2;63;39488;4;98;355;35;3;8;26098;6;14;486;35;4;2;36020;3;2;200;39;5;104;82133;4;15;28;360;574;45;6;70;62068;4;24;29;425;431;45;7;1;45504;4;7;437;34;8;1;45586;6;8;435;34;9;1;25255;6;4;476;31
13.06.20;20:50:00;1;263;7808;0;2;105;39482;4;140;352;35;3;59;26097;4;98;426;36;4;7;36020;3;7;198;39;5;130;82124;4;25;42;360;574;45;6;87;62068;4;38;45;425;431;45;7;12;45504;6;18;426;34;8;4;45586;6;7;448;34;9;0;25255;6;5;490;31
13.06.20;20:45:00;1;263;7786;0;2;146;39474;4;184;356;36;3;86;26092;4;124;433;36;4;18;36019;3;19;198;39;5;153;82113;4;38;53;360;574;45;6;103;62068;4;52;62;425;432;45;7;40;45503;4;70;347;35;8;39;45585;4;69;359;35;9;3;25255;3;7;389;25
13.06.20;20:40:00;1;250;7764;0;2;209;39461;4;248;352;36;3;122;26085;4;164;453;37;4;44;36018;3;45;197;39;5;179;82100;4;55;61;360;574;45;6;119;62068;4;50;61;425;432;45;7;41;45500;4;86;407;35;8;49;45582;4;83;362;35;9;2;25254;6;7;503;32
13.06.20;20:35:00;1;212;7743;0;2;272;39444;4;313;351;37;3;163;26075;4;205;436;37;4;41;36014;3;43;197;40;5;201;82085;4;71;73;360;574;45;6;134;62065;4;72;87;425;432;45;7;66;45496;4;100;387;35;8;60;45578;4;95;380;35;9;6;25254;6;11;503;32
13.06.20;20:30:00;1;270;7726;0;2;342;39421;4;388;359;37;3;210;26061;4;255;467;38;4;63;36011;3;66;197;40;5;222;82068;4;79;84;360;574;45;6;148;62053;4;68;81;424;431;45;7;83;45491;4;112;363;35;8;76;45573;4;112;386;35;9;5;25254;6;10;509;32
13.06.20;20:25:00;1;241;7703;0;2;416;39393;4;464;360;38;3;258;26043;4;306;463;38;4;67;36005;3;69;198;40;5;241;82049;4;87;93;360;574;45;6;159;62041;4;76;89;425;432;45;7;93;45484;4;129;383;36;8;89;45567;4;120;367;35;9;8;25253;6;12;508;33
13.06.20;20:20:00;1;303;7683;0;2;505;39358;4;558;363;39;3;316;26022;4;366;461;39;4;76;36000;3;79;199;41;5;258;82029;4;99;103;360;574;46;6;170;62027;4;79;88;425;432;45;7;101;45476;4;138;381;36;8;94;45559;4;131;377;36;9;6;25253;6;12;426;27
13.06.20;20:15:00;1;253;7657;0;2;590;39316;4;645;361;39;3;373;25996;4;421;457;39;4;90;35993;3;94;199;41;5;277;82007;4;107;109;360;574;46;6;189;62013;4;90;101;425;431;45;7;111;45468;4;146;358;36;8;110;45552;4;145;388;36;9;11;25252;4;15;513;33
13.06.20;20:10:00;1;274;7636;0;2;678;39267;4;741;366;40;3;429;25965;4;480;466;39;4;98;35986;5;102;204;41;5;294;81984;4;120;117;360;574;46;6;195;61998;4;99;108;425;432;45;7;126;45459;4;161;368;36;8;123;45542;4;162;387;36;9;58;25251;4;86;419;34
13.06.20;20:05:00;1;368;7613;0;2;777;39210;4;839;366;41;3;484;25929;4;537;463;40;4;110;35978;5;114;206;41;5;306;81959;4;128;123;360;574;46;6;201;61981;4;104;113;425;431;45;7;114;45448;4;144;303;29;8;149;45532;4;182;394;36;9;51;25245;0;77;347;28
13.06.20;20:00:00;1;272;7581;0;2;880;39145;4;946;370;42;3;542;25888;4;599;459;40;4;117;35968;5;122;208;42;5;323;81934;4;136;129;360;574;46;6;211;61964;4;95;107;425;432;45;7;181;45436;4;221;407;37;8;144;45520;4;176;333;30;9;73;25241;4;100;441;35
13.06.20;19:55:00;1;225;7558;0;2;972;39072;4;1043;363;42;3;596;25843;4;656;454;40;4;125;35959;5;130;210;42;5;335;81907;4;143;136;360;574;46;6;224;61946;4;117;126;425;432;45;7;215;45421;4;260;412;37;8;155;45505;4;188;338;29;9;75;25235;4;105;445;35
13.06.20;19:50:00;1;212;7539;0;2;1074;38992;4;1150;365;43;3;651;25793;4;711;450;41;4;134;35948;5;140;209;42;5;345;81879;4;150;141;360;574;46;6;231;61928;4;110;120;425;432;46;7;264;45403;4;304;413;37;8;223;45489;4;266;425;37;9;81;25229;4;113;459;36
13.06.20;19:45:00;1;213;7522;0;2;1171;38902;4;1251;367;44;3;694;25739;4;754;432;41;4;156;35937;5;163;215;43;5;359;81850;4;154;153;360;574;46;6;238;61909;4;124;138;424;432;46;7;302;45381;4;341;422;38;8;261;45470;4;311;438;37;9;88;25222;4;120;472;36
13.06.20;19:40:00;1;320;7504;0;2;1270;38804;4;1356;372;44;3;743;25681;4;803;425;42;4;166;35924;5;173;221;43;5;368;81820;4;162;155;360;574;46;6;243;61889;4;128;143;424;431;46;7;372;45356;4;418;405;38;8;315;45448;4;362;441;38;9;103;25214;4;136;480;36
13.06.20;19:35:00;1;263;7478;0;2;1382;38698;4;1470;364;45;3;793;25620;4;856;422;42;4;180;35910;5;187;222;44;5;379;81789;4;166;162;360;574;47;6;252;61868;4;122;135;425;431;46;7;464;45325;4;513;435;38;8;367;45422;4;416;416;38;9;91;25204;0;120;409;29
13.06.20;19:30:00;1;304;7456;0;2;1481;38583;4;1574;366;46;3;841;25553;4;902;420;42;4;191;35895;5;199;220;44;5;397;81757;4;174;164;360;574;47;6;261;61847;4;66;73;424;431;46;7;571;45286;4;617;433;39;8;409;45392;4;448;336;31;9;126;25197;4;157;429;37
13.06.20;19:25:00;1;306;7430;0;2;1584;38460;4;1682;366;46;3;905;25483;4;969;414;43;4;303;35879;5;315;199;45;5;417;81724;4;187;172;360;574;47;6;279;61825;4;156;180;425;454;46;7;658;45239;4;716;433;39;8;688;45350;4;745;438;39;9;156;25186;4;187;374;38
13.06.20;19:20:00;1;270;7406;0;2;1685;38328;4;1786;368;47;3;975;25408;4;1043;424;43;4;678;35853;5;707;200;46;5;459;81689;4;211;184;371;582;47;6;348;61801;4;179;200;500;506;46;7;778;45183;4;839;441;39;8;789;45292;4;844;425;39;9;195;25173;4;228;357;38
13.06.20;19:15:00;1;361;7383;0;2;1771;38188;4;1882;370;48;3;1021;25327;4;1089;420;44;4;1024;35797;5;1066;200;46;5;530;81650;4;247;219;378;599;47;6;400;61772;4;195;214;533;506;46;7;881;45119;4;948;439;40;8;899;45226;4;963;439;40;9;154;25157;4;183;359;39
13.06.20;19:10:00;1;225;7352;0;2;1875;38040;4;1985;363;48;3;1093;25242;4;1168;422;44;4;1230;35712;5;1281;215;47;5;622;81606;4;289;267;360;608;47;6;476;61738;4;245;260;547;513;47;7;1002;45046;4;1065;444;40;8;984;45152;4;1046;429;40;9;329;25144;4;367;357;40
13.06.20;19:05:00;1;214;7333;0;2;1972;37884;4;2085;360;49;3;1142;25151;4;1220;424;44;4;1343;35610;5;1399;220;47;5;738;81553;4;352;312;382;620;48;6;549;61698;4;267;272;546;521;47;7;1110;44962;4;1185;440;40;8;1097;45069;4;1167;423;40;9;462;25116;4;510;384;41
13.06.20;19:00:00;1;274;7314;0;2;2071;37719;4;2187;362;49;3;1218;25055;4;1295;424;45;4;1446;35498;5;1506;221;47;5;870;81490;4;418;368;383;616;48;6;648;61651;4;291;294;546;513;47;7;1241;44869;4;1315;447;41;8;1266;44977;4;1346;444;41;9;613;25077;4;669;455;41
13.06.20;18:55:00;1;274;7291;0;2;2171;37547;4;2292;359;50;3;1250;24954;4;1327;438;45;4;1527;35378;5;1590;220;48;5;1006;81417;4;498;422;388;624;48;6;749;61596;4;364;376;549;520;47;7;1354;44766;4;1439;439;41;8;1115;44872;4;1180;349;32;9;733;25027;4;797;488;42
13.06.20;18:50:00;1;299;7267;0;2;2259;37366;4;2386;361;51;3;1355;24849;4;1437;434;46;4;1620;35251;5;1687;221;48;5;1163;81332;4;578;487;391;631;48;6;876;61533;4;473;484;554;522;47;7;1478;44653;4;1566;441;41;8;1507;44757;4;1592;442;41;9;803;24966;4;869;492;42
13.06.20;18:45:00;1;245;7241;0;2;2345;37178;4;2473;355;51;3;1431;24736;4;1516;440;46;4;1707;35116;5;1778;220;48;5;1311;81234;4;655;557;396;625;49;6;993;61460;4;509;522;549;523;47;7;1598;44533;4;1688;441;42;8;1626;44633;4;1720;443;42;9;868;24900;4;940;482;43
13.06.20;18:40:00;1;254;7219;0;2;2452;36982;4;2587;358;52;3;1504;24617;4;1593;440;47;4;1801;34974;5;1876;218;48;5;1501;81122;4;763;635;389;632;49;6;1129;61376;4;580;588;546;525;48;7;1735;44398;4;1833;440;42;8;1761;44497;4;1860;437;42;9;944;24827;4;1018;492;43
13.06.20;18:35:00;1;289;7198;0;2;2526;36779;4;2667;363;52;3;1551;24492;4;1638;435;47;4;1885;34824;5;1963;218;49;5;1655;80997;4;846;710;389;626;49;6;1235;61281;4;680;666;544;519;48;7;1470;44254;4;1550;349;33;8;1875;44351;4;1980;436;42;9;1010;24748;4;1084;488;44
13.06.20;18:30:00;1;265;7175;0;2;2624;36567;4;2768;359;53;3;1597;24362;4;1685;434;47;4;1975;34666;5;2057;216;49;5;1862;80856;4;974;793;385;625;50;6;1391;61176;4;724;712;549;515;48;7;1972;44099;4;2084;439;43;8;2010;44194;4;2118;435;43;9;1084;24665;4;1159;479;44
13.06.20;18:25:00;1;424;7152;0;2;2709;36350;4;2857;360;53;3;1632;24229;4;1724;422;47;4;2059;34502;5;2145;216;49;5;2032;80700;4;1058;874;395;627;50;6;1534;61059;4;756;749;549;520;48;7;1662;43935;4;1753;357;34;8;2116;44026;4;2230;436;43;9;1150;24574;4;1229;482;45
13.06.20;18:20:00;1;279;7122;0;2;2805;36124;4;2957;357;54;3;1695;24093;4;1791;441;48;4;2146;34330;5;2235;216;49;5;2236;80529;4;1175;961;388;626;50;6;1687;60930;4;870;860;544;524;48;7;2224;43762;4;2342;440;43;8;2247;43849;4;2369;436;44;9;1224;24477;4;1303;480;45
13.06.20;18:15:00;1;336;7098;0;2;2879;35889;4;3035;353;54;3;1761;23952;4;1856;430;48;4;2228;34151;5;2320;216;49;5;2429;80341;4;1291;1054;386;626;50;6;1825;60788;4;919;911;545;519;49;7;2338;43578;4;2462;438;44;8;2368;43663;4;2493;433;44;9;1291;24376;4;1374;482;46
13.06.20;18:10:00;1;271;7070;0;2;2962;35649;4;3125;354;55;3;1843;23805;4;1946;437;49;4;2313;33966;5;2410;217;49;5;2627;80137;4;1408;1140;384;629;51;6;1988;60634;4;1002;989;543;523;49;7;2469;43381;4;2602;437;44;8;2499;43464;4;2626;432;44;9;1361;24269;4;1449;482;46
13.06.20;18:05:00;1;249;7048;0;2;3043;35402;4;3212;353;55;3;1914;23652;4;2021;440;49;4;2393;33772;5;2493;214;49;5;2827;79917;4;1513;1231;383;628;51;6;2137;60468;4;1104;1074;543;524;49;7;2578;43179;4;2708;431;44;8;2602;43259;4;2742;428;44;9;1420;24157;4;1512;482;46
13.06.20;18:00:00;1;394;7025;0;2;3141;35148;4;3313;355;56;3;1981;23492;4;2087;438;49;4;2488;33573;5;2592;212;49;5;3040;79678;4;1647;1324;389;622;51;6;2297;60288;4;1183;1152;546;522;49;7;2702;42960;4;2843;432;45;8;2721;43038;4;2865;435;45;9;1489;24036;4;1589;478;47
13.06.20;17:55:00;1;489;6990;0;2;3220;34887;4;3397;355;56;3;2030;23327;4;2136;436;50;4;2557;33365;5;2663;215;48;5;3228;79424;4;1742;1408;388;622;51;6;2436;60096;4;1256;1225;548;522;49;7;2812;42735;4;2958;434;45;8;2836;42812;4;2985;431;45;9;1552;23912;4;1650;477;47
13.06.20;17:50:00;1;304;6954;0;2;3278;34619;4;3462;355;57;3;2069;23158;4;2179;442;50;4;2626;33152;5;2735;215;48;5;3426;79154;4;1841;1506;383;617;51;6;2585;59891;4;1367;1322;546;522;49;7;2923;42501;4;3082;436;45;8;2946;42575;4;3097;426;46;9;1616;23783;4;1716;476;48
13.06.20;17:45:00;1;254;6929;0;2;3341;34345;4;3525;353;57;3;2145;22986;4;2263;448;50;4;2699;32933;5;2812;214;48;5;3600;78867;4;1941;1587;385;621;52;6;2704;59675;4;1405;1361;544;521;50;7;3033;42258;4;3194;435;45;8;3041;42330;4;3200;435;46;9;1673;23648;4;1779;474;48
13.06.20;17:40:00;1;334;6907;0;2;3422;34067;4;3616;352;57;3;2200;22807;4;2317;436;51;4;2782;32709;5;2898;212;48;5;3823;78565;4;2066;1687;386;624;52;6;2880;59449;4;1502;1456;539;515;50;7;3151;42005;4;3314;425;46;8;3166;42076;4;3327;424;46;9;1740;23511;4;1845;476;48
13.06.20;17:35:00;1;340;6878;0;2;3500;33782;4;3692;352;57;3;2247;22624;4;2365;443;51;4;2848;32478;5;2966;211;48;5;4008;78246;4;2165;1767;383;624;52;6;3012;59208;4;1561;1507;535;516;50;7;3256;41743;4;3426;431;46;8;3272;41814;4;3440;427;47;9;1799;23364;4;1907;472;49
13.06.20;17:30:00;1;270;6850;0;2;3513;33491;4;3708;358;58;3;2285;22437;4;2401;432;51;4;2922;32241;5;3044;212;49;5;4217;77911;4;2289;1861;384;622;52;6;3171;58956;4;1647;1599;535;514;50;7;3372;41471;4;3542;432;47;8;3388;41543;4;3559;427;47;9;1863;23215;4;1972;472;49
13.06.20;17:25:00;1;309;6827;0;2;3585;33198;4;3784;352;58;3;2310;22246;4;2431;432;51;4;2989;31997;5;3113;212;49;5;4392;77558;4;2397;1936;386;621;52;6;3298;58690;4;1723;1693;535;511;50;7;3445;41190;4;3622;423;47;8;3452;41258;4;3628;423;47;9;1906;23059;4;2018;470;49
13.06.20;17:20:00;1;316;6801;0;2;3626;32900;4;3828;354;58;3;2351;22054;4;2476;438;51;4;3044;31748;5;3170;211;49;5;4589;77190;4;2502;2026;383;622;52;6;3444;58415;4;1772;1717;533;519;50;7;3572;40904;4;3754;428;47;8;3587;40971;4;3770;424;47;9;1643;22899;4;1741;392;41
13.06.20;17:15:00;1;310;6775;0;2;3649;32597;4;3856;355;58;3;2384;21858;4;2509;436;52;4;3092;31495;5;3221;208;49;5;4755;76807;4;2575;2103;384;617;52;6;3572;58127;4;1869;1823;531;511;50;7;3664;40606;4;3854;427;47;8;3685;40672;4;3873;425;48;9;2029;22735;4;2148;459;50
13.06.20;17:10:00;1;382;6748;0;2;3683;32293;4;3891;354;59;3;2423;21659;4;2553;448;52;4;3132;31237;5;3263;208;50;5;4891;76410;4;2671;2159;382;619;52;6;3675;57829;4;1908;1860;530;509;50;7;3712;40300;4;3905;417;48;8;3728;40365;4;3919;417;48;9;1712;22566;4;1812;391;41
13.06.20;17:05:00;1;406;6716;0;2;3724;31986;4;3939;354;59;3;2469;21458;4;2604;438;52;4;3187;30976;5;3320;208;50;5;5057;76001;4;2770;2232;380;619;52;6;3807;57522;4;1970;1924;527;510;51;7;3776;39991;4;3975;419;48;8;3791;40055;4;3984;413;48;9;2093;22395;4;2215;464;50
13.06.20;17:00:00;1;412;6682;0;2;3794;31676;4;4007;354;59;3;2520;21252;4;2656;442;52;4;3253;30710;5;3389;207;50;5;5251;75579;4;2866;2324;379;616;51;6;3939;57204;4;2025;1983;529;508;51;7;3872;39678;4;4075;420;48;8;3884;39739;4;4083;414;49;9;2145;22221;4;2273;464;51
13.06.20;16:55:00;1;330;6647;0;2;3809;31361;4;4025;356;59;3;2550;21042;4;2687;438;52;4;3305;30439;5;3442;206;50;5;5419;75140;4;2968;2397;376;612;51;6;4074;56875;4;2113;2046;525;509;51;7;3976;39357;4;4177;415;48;8;3991;39421;4;4187;413;49;9;2206;22047;4;2330;462;51
13.06.20;16:50:00;1;363;6619;0;2;3818;31043;4;4035;354;59;3;2567;20829;4;2703;436;52;4;3340;30164;5;3479;204;51;5;5556;74687;4;3050;2457;375;599;51;6;4182;56534;4;2168;2109;523;505;51;7;4034;39024;4;4237;412;48;8;4049;39083;4;4256;414;49;9;2245;21858;4;2372;459;51
13.06.20;16:45:00;1;292;6589;0;2;3876;30724;4;4097;353;60;3;2605;20615;4;2741;428;53;4;3394;29885;5;3535;204;51;5;5714;74223;4;3147;2520;375;601;51;6;4303;56185;4;2210;2157;519;508;51;7;4077;38686;4;4286;411;49;8;4103;38745;4;4311;409;49;9;2274;21672;4;2405;456;52
13.06.20;16:40:00;1;267;6564;0;2;3892;30401;4;4116;356;60;3;2632;20398;4;2767;434;53;4;3445;29602;5;3588;205;51;5;5856;73748;4;3214;2602;373;592;51;6;4418;55826;4;2294;2227;521;504;51;7;4161;38350;4;4374;412;49;8;3494;38406;4;3670;340;41;9;2323;21483;4;2456;454;52
13.06.20;16:35:00;1;302;6542;0;2;3925;30077;4;4150;356;60;3;2660;20179;4;2799;432;53;4;3489;29315;5;3634;204;51;5;5989;73257;4;3301;2651;373;597;51;6;4511;55458;4;2342;2249;520;508;51;7;4237;38000;4;4452;412;49;8;4253;38053;4;4468;410;50;9;2355;21288;4;2491;454;52
13.06.20;16:30:00;1;326;6516;0;2;4015;29750;4;4242;352;60;3;2694;19957;4;2835;436;53;4;3538;29025;5;3686;205;51;5;6149;72757;4;3385;2725;372;595;51;6;4640;55081;4;2407;2321;523;506;51;7;4317;37650;4;4533;411;49;8;4330;37702;4;4554;407;50;9;2411;21093;4;2544;454;52
13.06.20;16:25:00;1;336;6490;0;2;4079;29415;4;4308;355;60;3;2748;19733;4;2890;436;53;4;3632;28730;5;3783;208;51;5;6316;72244;4;3458;2805;373;596;51;6;4775;54694;4;2468;2395;522;506;51;7;3521;37287;4;3700;332;40;8;4405;37339;4;4634;412;50;9;2456;20891;4;2595;456;53
13.06.20;16:20:00;1;311;6463;0;2;4112;29075;4;4349;354;61;3;2776;19504;4;2926;438;53;4;3670;28427;5;3823;205;52;5;6487;71717;4;3563;2884;369;592;51;6;4885;54294;4;2544;2458;518;503;51;7;4506;36921;4;4745;412;50;8;4501;36978;4;4737;412;50;9;2515;20690;4;2652;454;53
13.06.20;16:15:00;1;372;6437;0;2;4118;28734;4;4350;353;61;3;2795;19273;4;2938;425;53;4;3701;28121;5;3856;203;52;5;6645;71176;4;3661;2956;368;589;51;6;5001;53887;4;2615;2507;518;501;51;7;4596;36547;4;4829;409;50;8;4586;36597;4;4826;410;50;9;2556;20477;4;2699;458;53
13.06.20;16:10:00;1;372;6406;0;2;4134;28390;4;4373;355;61;3;2812;19040;4;2957;430;53;4;3733;27813;5;3888;205;52;5;6800;70621;4;3760;3023;370;592;51;6;5118;53469;4;2640;2563;517;502;51;7;4637;36166;4;4882;412;50;8;4635;36221;4;4879;415;51;9;2591;20269;4;2733;452;53
13.06.20;16:05:00;1;321;6375;0;2;4252;28046;4;4496;355;61;3;2863;18805;4;3012;428;53;4;3810;27502;5;3969;205;52;5;6962;70053;4;3843;3101;373;590;50;6;5247;53041;4;2731;2630;519;501;51;7;4718;35782;4;4961;406;50;8;4710;35837;4;4953;407;51;9;2103;20055;4;2218;363;43
13.06.20;16:00:00;1;363;6347;0;2;4269;27692;4;4519;355;61;3;2885;18567;4;3035;437;54;4;3849;27184;5;4009;204;52;5;7090;69472;4;3913;3163;369;593;50;6;5350;52603;4;2795;2647;518;501;51;7;4768;35387;4;5015;413;50;8;4767;35438;4;5016;405;51;9;2654;19831;4;2797;455;54
13.06.20;15:55:00;1;319;6316;0;2;4194;27335;4;4435;356;61;3;2865;18326;4;3010;433;54;4;3834;26863;5;3993;201;52;5;7156;68880;4;3963;3190;366;591;50;6;5401;52156;4;2802;2717;514;500;51;7;4818;34985;4;5070;406;51;8;4814;35038;4;5069;410;51;9;2684;19609;4;2836;454;54
13.06.20;15:50:00;1;319;6290;0;2;4292;26987;4;4540;355;61;3;2915;18087;4;3060;430;54;4;3891;26544;5;4053;203;52;5;7332;68283;4;4048;3270;369;591;50;6;5523;51706;4;2857;2779;515;501;51;7;4881;34585;4;5128;404;51;8;4876;34637;4;5131;408;51;9;2714;19384;4;2863;456;54
13.06.20;15:45:00;1;356;6263;0;2;4379;26628;4;4629;353;61;3;2963;17844;4;3112;435;54;4;3937;26219;5;4101;203;52;5;7511;67671;4;4162;3352;368;591;50;6;5672;51244;4;2946;2859;514;502;51;7;4977;34177;4;5235;414;51;8;4972;34231;4;5233;410;51;9;2223;19103;0;2344;363;43
13.06.20;15:40:00;1;356;6233;0;2;4429;26262;4;4681;355;61;3;2999;17597;4;3151;436;54;4;3998;25892;5;4165;205;52;5;7637;67044;4;4217;3413;368;590;50;6;5772;50771;4;2996;2886;514;502;51;7;5020;33764;4;5279;407;51;8;5014;33817;4;5274;409;51;9;2803;18929;4;2954;451;54
13.06.20;15:35:00;1;322;6202;0;2;4473;25893;4;4727;353;61;3;3011;17348;4;3166;440;54;4;4032;25559;5;4200;203;53;5;7758;66407;4;4296;3455;369;595;50;6;5861;50290;4;3038;2932;517;496;51;7;5045;33346;4;5305;409;51;8;5030;33399;4;5292;405;52;9;2815;18693;4;2969;450;54